Regional Weather Roundup
Issued by NWS Jackson, KY

Home | Current Version | Previous Version | Graphics & Text | Print | Product List | Glossary On
Versions: 1 2 3 4 5 6 7 8 9 10 11 12 13 14 15 16 17 18 19 20 21 22 23 24 25 26 27 28 29 30 31 32 33 34 35 36 37 38 39 40 41 42 43 44 45 46 47 48 49 50
000
ASUS43 KJKL 261310
RWRJKL

EAST KENTUCKY HOURLY WEATHER ROUNDUP
NATIONAL WEATHER SERVICE JACKSON KY
900 AM EDT FRI AUG 26 2016

NOTE: "FAIR" INDICATES FEW OR NO CLOUDS BELOW 12,000 FEET WITH
NO SIGNIFICANT WEATHER AND/OR OBSTRUCTIONS TO VISIBILITY.

* THESE REPORTS ARE NOT UNDER NWS QUALITY CONTROL AND MAY NOT
  REPORT WEATHER SUCH AS PRECIPITATION AND FOG.

KYZ079-080-083-085-087-088-110-112-115-119-120-261400
...EASTERN KENTUCKY...

CITY           SKY/WX    TMP DP  RH WIND       PRES   REMARKS
JACKSON        SUNNY     76  73  91 CALM      30.19S
LONDON         SUNNY     75  72  90 CALM      30.18S
SOMERSET*      MOSUNNY   72  72 100 CALM      30.18R
MONTICELLO*    SUNNY    N/A N/A N/A N8        30.18S
WILLIAMSBURG*  CLOUDY    72  72 100 CALM      30.19R VSB<1/4
MIDDLESBORO*   CLOUDY    71  71 100 CALM      30.20S FOG
HARLAN APT*    CLOUDY    70  68  94 CALM      30.22R
PIKE CO APT*   FOG       71  71 100 CALM      30.20S VSB<1/4
BIG SANDY APT* MOSUNNY   75  73  95 CALM      30.18S
MOREHEAD APT*  SUNNY     73  73 100 CALM      30.18R
$$

KYZ035-036-041-042-044-050-067-078-099-261400
...CENTRAL KENTUCKY...

CITY           SKY/WX    TMP DP  RH WIND       PRES   REMARKS
MT STERLING*   SUNNY    N/A N/A N/A CALM      30.18S
FLEMING/MASON* SUNNY     76  72  87 SW5       30.17R
DANVILLE*      SUNNY     73  72  94 CALM      30.18R
LEXINGTON      SUNNY     77  72  84 CALM      30.16R
FRANKFORT      SUNNY     77  71  82 CALM      30.15R
LOUISVILLE     PTSUNNY   78  72  81 CALM      30.14R
LEBANON*         N/A     79  73  83 CALM      30.16R
GLASGOW*       MOSUNNY   76  76 100 E3        30.14R
BOWLING GREEN  SUNNY     80  75  84 CALM      30.13R
$$

KYZ091>093-OHZ055-061-077-WVZ005-015-034-035-042-261400
...SOUTHERN OHIO/WEST VIRGINIA...

CITY           SKY/WX    TMP DP  RH WIND       PRES   REMARKS
COVINGTON      MOSUNNY   78  73  84 CALM      30.16R
COLUMBUS       MOSUNNY   76  71  85 N3        30.14R
DAYTON         MOSUNNY   76  73  91 N5        30.17R
WILMINGTON     SUNNY     75  73  93 SE3       30.16R FOG
HUNTINGTON     SUNNY     76  73  91 SW5       30.15R
CHARLESTON     MOSUNNY   73  71  93 CALM      30.16R
PINEVILLE*     FOG       71  67  90 MISG      30.26S VSB 1/2
BECKLEY        MOSUNNY   72  69  90 SW3       30.25R
BLUEFIELD      SUNNY     72  68  87 NW5       30.27R
LOGAN CO APT*  FOG       72  72 100 CALM      30.20R VSB<1/4
$$

VAZ002-007-008-TNZ017-027-036-066-071-261400
...SOUTHWEST VIRGINIA/EAST TENNESSEE...

CITY           SKY/WX    TMP DP  RH WIND       PRES   REMARKS
WISE*          CLOUDY    73  70  88 CALM      30.28S
JONESVILLE*    FOG       70  70 100 CALM      30.23R VSB 1/2
ABINGDON*      SUNNY     75  73  92 CALM      30.23S
BRISTOL        FOG       70  69  97 CALM      30.21R VSB 1/4
MORRISTOWN*    SUNNY     77  72  83 E5        30.18S
SEVIERVILLE*   SUNNY     73  68  83 CALM      30.16S
KNOXVILLE      MOSUNNY   77  73  87 E5        30.15R
OAK RIDGE      CLOUDY    74  73  97 CALM      30.18S
CROSSVILLE     SUNNY     74  70  87 CALM      30.21R
NASHVILLE      PTSUNNY   78  75  90 CALM      30.13R
$$

...KEY TO REMARKS...
VSB - VISIBILITY IN MILES
WCI - WIND CHILL INDEX
HX  - HEAT INDEX

$$



USA.gov is the U.S. government's official web portal to all federal, state and local government web resources and services.